Location: Newark
(51.3318°N, 0.0053°E)
Time: 06:43:57
(UTC+00:00)

BlueWalker 3 - Pass Details

Date: 28 November 2022
Orbit: 499 x 517 km, 53.2° (Epoch: 28 January)

Event Time Altitude Azimuth Distance (km) Brightness Sun altitude
Rises 18:42:58 0° 266° (W) 2,628 7.0 -25.0°
Reaches altitude 10° 18:45:11 10° 269° (W) 1,738 5.7 -25.4°
Enters shadow 18:48:06 46° 288° (WNW) 693 2.9 -25.8°
